BAW426 EGLL-LEMG

Flight info

Callsign BAW426
Flight time N/A
Altitude 35000
Route GASGU N866 SAM M195 MARUK N621 LELNA DCT NOVAN/N0457F370 DCT DELOG DCT CRISA DCT VULPE
Aircraft A320/M-SDE3FGHIJ1KRWXY/S

Departure

Time 2026-05-05 14:31
Airport London Heathrow Airport (EGLL)

Arrival

Time N/A
Airport Málaga-Costa del Sol Airport (LEMG)
Time Latitude Longitude Altitude Speed Heading
2026-05-05 14:23 51.47481 -0.48576 97 ft 0 kts 88°
2026-05-05 14:25 51.47480 -0.48525 97 ft 8 kts 120°
2026-05-05 14:25 51.47445 -0.48484 97 ft 10 kts 173°
2026-05-05 14:26 51.47368 -0.48476 97 ft 12 kts 179°
2026-05-05 14:26 51.47279 -0.48473 97 ft 14 kts 178°
2026-05-05 14:26 51.47193 -0.48480 97 ft 12 kts 179°
2026-05-05 14:26 51.47101 -0.48471 97 ft 14 kts 174°
2026-05-05 14:27 51.47013 -0.48472 97 ft 13 kts 181°
2026-05-05 14:27 51.46924 -0.48470 97 ft 13 kts 178°
2026-05-05 14:27 51.46827 -0.48472 97 ft 15 kts 182°
2026-05-05 14:27 51.46716 -0.48467 97 ft 16 kts 175°
2026-05-05 14:28 51.46648 -0.48515 97 ft 11 kts 257°
2026-05-05 14:28 51.46646 -0.48647 97 ft 13 kts 269°
2026-05-05 14:28 51.46606 -0.48759 97 ft 13 kts 209°
2026-05-05 14:28 51.46513 -0.48782 97 ft 15 kts 159°
2026-05-05 14:29 51.46473 -0.48680 97 ft 0 kts 91°
2026-05-05 14:30 51.46473 -0.48674 97 ft 3 kts 91°
2026-05-05 14:30 51.46475 -0.48374 97 ft 63 kts 90°
2026-05-05 14:30 51.46470 -0.47255 98 ft 134 kts 87°
2026-05-05 14:31 51.46478 -0.45497 287 ft 169 kts 87°
2026-05-05 14:31 51.46520 -0.43594 940 ft 173 kts 85°
2026-05-05 14:31 51.46516 -0.41591 1545 ft 191 kts 91°
2026-05-05 14:31 51.46170 -0.39466 2186 ft 206 kts 112°
2026-05-05 14:32 51.45283 -0.37428 2575 ft 242 kts 128°
2026-05-05 14:32 51.44017 -0.35439 3001 ft 272 kts 136°
2026-05-05 14:32 51.42475 -0.33566 3832 ft 279 kts 142°
2026-05-05 14:32 51.40842 -0.31837 4753 ft 280 kts 151°
2026-05-05 14:33 51.38984 -0.30966 5056 ft 284 kts 173°
2026-05-05 14:33 51.37027 -0.31202 4907 ft 283 kts 196°
2026-05-05 14:33 51.35292 -0.32578 4671 ft 278 kts 218°
2026-05-05 14:33 51.33998 -0.34832 4508 ft 275 kts 239°
2026-05-05 14:34 51.33038 -0.37465 4463 ft 273 kts 240°
2026-05-05 14:34 51.32060 -0.40082 4457 ft 274 kts 241°
2026-05-05 14:34 51.31077 -0.42694 4314 ft 273 kts 242°
2026-05-05 14:34 51.30219 -0.45392 4203 ft 273 kts 246°
2026-05-05 14:35 51.29469 -0.48172 4102 ft 271 kts 251°
2026-05-05 14:35 51.28913 -0.51035 4206 ft 269 kts 257°
2026-05-05 14:35 51.28460 -0.53956 4427 ft 274 kts 258°
2026-05-05 14:35 51.27983 -0.57014 4854 ft 290 kts 257°
2026-05-05 14:36 51.27437 -0.60098 5504 ft 284 kts 256°
2026-05-05 14:36 51.26858 -0.63080 5861 ft 278 kts 255°
2026-05-05 14:36 51.26285 -0.66016 6037 ft 278 kts 256°
2026-05-05 14:36 51.25732 -0.68973 6226 ft 278 kts 256°
2026-05-05 14:37 51.25199 -0.71900 6680 ft 279 kts 256°
2026-05-05 14:37 51.24641 -0.74919 7426 ft 281 kts 255°
2026-05-05 14:37 51.24076 -0.77917 8158 ft 284 kts 255°
2026-05-05 14:37 51.23511 -0.80909 8856 ft 286 kts 255°
2026-05-05 14:38 51.22935 -0.83962 9546 ft 289 kts 255°
2026-05-05 14:38 51.22354 -0.87055 10206 ft 293 kts 255°
2026-05-05 14:38 51.21757 -0.90228 10642 ft 306 kts 254°
2026-05-05 14:38 51.21445 -0.91889 10791 ft 314 kts 254°